Home   Weather   Vreden   Past weeks

Flag for Germany Past Weather in Vreden, North Rhine-Westphalia, Germany — Yesterday and Last 2 Weeks

Now
57 °F

Low clouds.


Feels Like: 56 °F
Forecast: 49 / 64 °F
Wind: 5 mph from Southwest

Location: Twenthe

Current Time: Sep 30, 2016 at 2:04:02 AM

Latest Report: Sep 30, 2016 at 1:00 AM


Visibility: 9 mi

Pressure: 29.90 "Hg

Humidity: 96%

Dew Point: 56 °F

Location of VredenLocation

Past Weather in Vreden — Graph

°F

Vreden Temperature Yesterday

Maximum temperature yesterday: 65 °F (at 2:00 PM)
Minimum temperature yesterday: 58 °F (at 11:00 PM)
Average temperature yesterday: 63 °F

High & Low Weather Summary for the Past Weeks

 TemperatureHumidityPressure
High84 °F (Sep 15, 4:00 PM)100% (Sep 17, 4:00 AM)30.31 "Hg (Sep 17, 4:00 AM)
Low42 °F (Sep 20, 6:00 AM)38% (Sep 25, 4:00 PM)29.82 "Hg (Sep 15, 5:00 PM)
Average60 °F76%30.10 "Hg
* Reported Sep 15 12:00 AM — Sep 30 12:00 AM, Vreden, Weather by CustomWeather, © 2016

Note: Actual official high and low records may vary slightly from our data, if they occured in-between our weather recording intervals... More about our weather records

Advertising

Vreden Weather History for the Previous 24 Hours

Scroll right to see more
 ConditionsComfort  
Time TempWeatherWind HumidityBarometerVisibility
12:00 AM
Fri, Sep 30
57 °FLow clouds.3 mph96%29.90 "Hg10 mi
11:00 PM
Thu, Sep 29
58 °FLow clouds.5 mph95%29.90 "Hg11 mi
10:00 PM59 °FLow clouds.6 mph93%29.90 "Hg13 mi
9:00 PM60 °FLight rain. Overcast.6 mph94%29.89 "Hg16 mi
8:00 PM60 °FLow clouds.7 mph96%29.88 "Hg2 mi
7:00 PM64 °FOvercast.8 mph78%29.88 "Hg12 mi
6:00 PM64 °FOvercast.8 mph77%29.88 "Hg19 mi
5:00 PM65 °FOvercast.9 mph75%29.89 "Hg18 mi
4:00 PM65 °FOvercast.9 mph73%29.90 "Hg19 mi
3:00 PM65 °FOvercast.9 mph75%29.91 "Hg14 mi
2:00 PM65 °FOvercast.8 mph73%29.93 "Hg17 mi
1:00 PM64 °FOvercast.8 mph75%29.95 "Hg19 mi
9:00 AM62 °FPartly sunny.8 mph78%29.99 "Hg19 mi
8:00 AM61 °FOvercast.8 mph76%30.01 "Hg22 mi
7:00 AM61 °FOvercast.8 mph75%30.02 "Hg19 mi
6:00 AM62 °FOvercast.8 mph74%30.04 "Hg18 mi
5:00 AM62 °FOvercast.8 mph72%30.06 "Hg15 mi
4:00 AM63 °FOvercast.7 mph69%30.08 "Hg13 mi
3:00 AM64 °FOvercast.7 mph66%30.11 "Hg16 mi
2:00 AM64 °FOvercast.6 mph64%30.12 "Hg16 mi
Weather by CustomWeather, © 2016

See weather overviewHow to use our weather pages